OK1KZE-6 Weather Reports


Display with metric or nautical units.
time (UTC)temp
F
wind
direction
speed
MPH
gust
MPH
rain 1hr
in
rain 24hr
in
rain mn
in
humidity
%
barometer
mb
20260509095007 55 86 3.0 4.0 0.00 0.00 0.00 70 1021.9
20260509094508 55 20 3.0 5.0 0.00 0.00 0.00 69 1021.9
20260509094007 55 0 2.0 2.0 0.00 0.00 0.00 69 1021.9
20260509093508 55 15 2.0 5.0 0.00 0.00 0.00 73 1021.6
20260509093007 56 122 3.0 3.0 0.00 0.00 0.00 73 1021.6
20260509092507 55 320 2.0 4.0 0.00 0.00 0.00 72 1021.7
20260509092008 54 46 6.0 8.0 0.00 0.00 0.00 74 1021.7
20260509091507 54 359 3.0 5.0 0.00 0.00 0.00 72 1021.8
20260509091006 54 39 2.0 2.0 0.00 0.00 0.00 71 1021.8
20260509090507 54 0 3.0 3.0 0.00 0.00 0.00 73 1022.0
20260509090007 54 49 3.0 5.0 0.00 0.00 0.00 74 1021.9
20260509085008 55 341 4.0 5.0 0.00 0.00 0.00 75 1021.7
20260509084507 54 342 2.0 2.0 0.00 0.00 0.00 75 1021.7
20260509084008 54 0 4.0 6.0 0.00 0.00 0.00 76 1022.0
20260509083507 54 79 4.0 4.0 0.00 0.00 0.00 77 1021.7
20260509083008 53 119 4.0 5.0 0.00 0.00 0.00 79 1021.8
20260509082506 54 188 1.0 1.0 0.00 0.00 0.00 79 1021.8
20260509082008 52 104 3.0 3.0 0.00 0.00 0.00 81 1021.8
20260509081508 52 76 8.0 9.0 0.00 0.00 0.00 80 1021.7
20260509081007 53 8 4.0 5.0 0.00 0.00 0.00 79 1021.8
20260509080508 53 71 2.0 3.0 0.00 0.00 0.00 81 1021.9
20260509080008 52 62 4.0 4.0 0.00 0.00 0.00 81 1021.9
20260509075508 52 102 2.0 2.0 0.00 0.00 0.00 82 1022.0
20260509075008 52 41 4.0 5.0 0.00 0.00 0.00 83 1021.7
20260509074508 52 104 2.0 3.0 0.00 0.00 0.00 83 1021.8
20260509074008 51 63 8.0 8.0 0.00 0.00 0.00 83 1022.0
20260509073507 51 95 3.0 5.0 0.00 0.00 0.00 84 1021.9
20260509073008 51 60 6.0 6.0 0.00 0.00 0.00 85 1021.8
20260509072508 51 29 8.0 10.0 0.00 0.00 0.00 85 1021.7
20260509072008 51 52 5.0 6.0 0.00 0.00 0.00 83 1021.9
20260509071508 51 47 3.0 5.0 0.00 0.00 0.00 85 1021.6
20260509071007 51 52 8.0 9.0 0.00 0.00 0.00 86 1021.5
20260509070507 51 98 4.0 7.0 0.00 0.00 0.00 85 1021.8
20260509070007 50 40 3.0 4.0 0.00 0.00 0.00 87 1021.6
20260509065507 49 40 9.0 10.0 0.00 0.00 0.00 87 1021.6
20260509065008 49 31 8.0 12.0 0.00 0.00 0.00 88 1021.4
20260509064508 49 17 5.0 8.0 0.00 0.00 0.00 88 1021.6
20260509064008 50 52 7.0 7.0 0.00 0.00 0.00 86 1021.7
20260509063508 48 63 7.0 9.0 0.00 0.00 0.00 89 1021.5
20260509063008 49 58 5.0 7.0 0.00 0.00 0.00 88 1021.2
20260509062508 49 109 3.0 5.0 0.00 0.00 0.00 90 1021.3
20260509062008 48 67 6.0 6.0 0.00 0.00 0.00 90 1021.3
20260509061508 48 50 6.0 6.0 0.00 0.00 0.00 92 1021.1
20260509061007 48 59 3.0 3.0 0.00 0.00 0.00 92 1021.3
20260509060509 48 50 4.0 6.0 0.00 0.00 0.00 92 1021.3
20260509060006 48 22 3.0 3.0 0.00 0.00 0.00 92 1021.3
20260509055508 46 62 6.0 8.0 0.00 0.00 0.00 94 1021.2
20260509055009 46 57 0.0 2.0 0.00 0.00 0.00 95 1021.1
20260509054508 46 100 1.0 2.0 0.00 0.00 0.00 95 1021.4
20260509054007 47 82 3.0 3.0 0.00 0.00 0.00 95 1021.3
20260509053508 46 340 2.0 2.0 0.00 0.00 0.00 96 1021.3
20260509052509 46 8 3.0 4.0 0.00 0.00 0.00 95 1021.1
20260509052007 46 338 3.0 3.0 0.00 0.00 0.00 94 1021.0
20260509051508 46 351 2.0 2.0 0.00 0.00 0.00 94 1021.1
20260509051008 47 89 1.0 1.0 0.00 0.00 0.00 94 1021.1
20260509050507 47 69 1.0 1.0 0.00 0.00 0.00 96 1020.9
20260509050008 45 16 2.0 2.0 0.00 0.00 0.00 96 1021.0
20260509045509 45 47 1.0 2.0 0.00 0.00 0.00 96 1020.9
20260509045007 45 57 2.0 3.0 0.00 0.00 0.00 96 1020.8
20260509044509 45 52 4.0 5.0 0.00 0.00 0.00 96 1020.8
20260509044008 45 33 2.0 3.0 0.00 0.00 0.00 96 1020.8
20260509043509 45 17 2.0 3.0 0.00 0.00 0.00 96 1020.6
20260509043007 45 33 5.0 5.0 0.00 0.00 0.00 96 1020.9
20260509042508 45 44 5.0 8.0 0.00 0.00 0.00 96 1020.7
20260509042007 44 29 7.0 8.0 0.00 0.00 0.00 96 1020.7
20260509041508 44 35 9.0 12.0 0.00 0.00 0.00 96 1020.5
20260509041007 45 38 9.0 9.0 0.00 0.00 0.00 96 1020.5
20260509040507 45 23 6.0 8.0 0.00 0.00 0.00 96 1020.7
20260509040009 44 24 5.0 8.0 0.00 0.00 0.00 97 1020.6
20260509035507 44 44 9.0 10.0 0.00 0.00 0.00 97 1020.5
20260509035008 44 28 9.0 10.0 0.00 0.00 0.00 97 1020.5
20260509034508 44 19 9.0 10.0 0.00 0.00 0.00 97 1020.4
20260509034008 45 16 8.0 9.0 0.00 0.00 0.00 97 1020.8
20260509033507 44 18 8.0 9.0 0.00 0.00 0.00 97 1020.9
20260509033008 45 18 9.0 10.0 0.00 0.00 0.00 97 1020.8
20260509032507 45 16 9.0 10.0 0.00 0.00 0.00 97 1021.0
20260509032006 45 14 8.0 9.0 0.00 0.00 0.00 96 1021.3
20260509031507 45 15 8.0 9.0 0.00 0.00 0.00 96 1021.4
20260509031008 45 23 7.0 8.0 0.00 0.00 0.00 96 1021.4
20260509030507 45 27 7.0 8.0 0.00 0.00 0.00 96 1021.3
20260509030008 45 23 7.0 8.0 0.00 0.00 0.00 96 1021.2
20260509025508 45 20 7.0 7.0 0.00 0.00 0.00 96 1021.3
20260509025008 45 20 6.0 6.0 0.00 0.00 0.00 96 1021.2
20260509024508 45 17 7.0 7.0 0.00 0.00 0.00 96 1021.5
20260509024008 45 14 7.0 7.0 0.00 0.00 0.00 95 1021.2
20260509023508 45 18 7.0 7.0 0.00 0.00 0.00 95 1021.4
20260509023007 46 23 6.0 6.0 0.00 0.00 0.00 95 1021.3
20260509022508 46 30 6.0 6.0 0.00 0.00 0.00 94 1021.2
20260509022008 46 28 5.0 6.0 0.00 0.00 0.00 95 1021.2
20260509021507 45 18 6.0 7.0 0.00 0.00 0.00 94 1021.2
20260509021006 46 9 4.0 5.0 0.00 0.00 0.00 94 1021.4
20260509020508 46 14 6.0 6.0 0.00 0.00 0.00 94 1021.4
20260509020008 46 18 6.0 7.0 0.00 0.00 0.00 93 1021.5
20260509015508 46 16 4.0 5.0 0.00 0.00 0.00 94 1021.4
20260509015008 46 17 5.0 5.0 0.00 0.00 0.00 94 1021.4
20260509014507 46 14 6.0 6.0 0.00 0.00 0.00 93 1021.4
20260509014008 46 9 5.0 5.0 0.00 0.00 0.00 93 1021.2
20260509013507 46 9 5.0 6.0 0.00 0.00 0.00 93 1021.4
20260509013008 46 5 6.0 6.0 0.00 0.00 0.00 93 1021.3
20260509012507 46 0 4.0 5.0 0.00 0.00 0.00 92 1021.1
20260509012007 46 353 4.0 5.0 0.00 0.00 0.00 92 1021.0
20260509011508 46 2 5.0 5.0 0.00 0.00 0.00 92 1020.9
20260509011006 46 8 4.0 5.0 0.00 0.00 0.00 92 1021.1
20260509010508 46 5 4.0 5.0 0.00 0.00 0.00 92 1021.3
20260509010008 46 10 5.0 5.0 0.00 0.00 0.00 91 1021.1
20260509005508 46 2 3.0 4.0 0.00 0.00 0.00 91 1021.2
20260509005009 46 356 4.0 4.0 0.00 0.00 0.00 92 1020.9
20260509004508 46 358 4.0 4.0 0.00 0.00 0.00 92 1021.0
20260509004008 46 352 4.0 4.0 0.00 0.00 0.00 91 1020.9
20260509003508 47 340 4.0 5.0 0.00 0.00 0.00 91 1020.9
20260509003007 47 12 6.0 7.0 0.00 0.00 0.00 90 1020.5
20260509002508 47 9 6.0 6.0 0.00 0.00 0.00 90 1020.6
20260509002007 47 17 5.0 5.0 0.00 0.00 0.00 90 1020.9
20260509001507 47 18 6.0 6.0 0.00 0.00 0.00 90 1020.7
20260509001006 47 25 6.0 6.0 0.00 0.00 0.00 90 1020.7
20260509000508 47 31 5.0 5.0 0.00 0.00 0.00 90 1020.6
20260509000007 47 39 4.0 4.0 0.00 0.00 0.00 89 1020.9
20260508235508 47 35 4.0 4.0 0.00 0.00 0.00 89 1020.8
20260508235008 47 15 6.0 6.0 0.00 0.00 0.00 89 1020.9
20260508234508 47 20 5.0 6.0 0.00 0.00 0.00 89 1020.7
20260508234007 47 23 4.0 4.0 0.00 0.00 0.00 89 1020.6
20260508233508 47 30 6.0 6.0 0.00 0.00 0.00 89 1020.9
20260508233007 47 48 3.0 5.0 0.00 0.00 0.00 89 1021.0
20260508232509 47 32 5.0 5.0 0.00 0.00 0.00 89 1020.9
20260508232007 47 34 4.0 4.0 0.00 0.00 0.00 89 1020.8
20260508231508 47 14 4.0 4.0 0.00 0.00 0.00 89 1020.9
20260508231008 47 359 4.0 4.0 0.00 0.00 0.00 89 1021.0
20260508230508 47 1 6.0 6.0 0.00 0.00 0.00 90 1020.9
20260508230008 47 358 6.0 6.0 0.00 0.00 0.00 90 1021.0
20260508225508 47 1 7.0 7.0 0.00 0.00 0.00 90 1020.9
20260508225009 47 344 5.0 6.0 0.00 0.00 0.00 90 1021.0
20260508224008 47 353 4.0 5.0 0.00 0.00 0.00 89 1020.9
20260508223507 47 15 7.0 8.0 0.00 0.00 0.00 89 1020.8
20260508223008 48 16 6.0 7.0 0.00 0.00 0.00 89 1020.9
20260508222507 47 10 5.0 5.0 0.00 0.00 0.00 89 1020.8
20260508222007 47 357 5.0 5.0 0.00 0.00 0.00 89 1021.1
20260508221508 47 0 5.0 5.0 0.00 0.00 0.00 89 1021.0
20260508221007 48 353 6.0 6.0 0.00 0.00 0.00 88 1021.0
20260508220508 47 1 4.0 5.0 0.00 0.00 0.00 89 1020.9
20260508220008 48 332 3.0 4.0 0.00 0.00 0.00 89 1021.0
20260508215507 48 298 4.0 4.0 0.00 0.00 0.00 88 1021.1
20260508215007 48 299 2.0 3.0 0.00 0.00 0.00 87 1021.3
20260508214507 48 347 2.0 2.0 0.00 0.00 0.00 87 1021.1
20260508214007 48 1 3.0 3.0 0.00 0.00 0.00 87 1021.0
20260508213508 48 291 2.0 2.0 0.00 0.00 0.00 87 1021.0
20260508213008 48 349 3.0 4.0 0.00 0.00 0.00 88 1020.9
20260508212507 48 328 2.0 4.0 0.00 0.00 0.00 87 1021.0
20260508212007 48 356 5.0 6.0 0.00 0.00 0.00 87 1020.9
20260508211507 48 3 7.0 7.0 0.00 0.00 0.00 88 1020.9
20260508211009 48 3 8.0 8.0 0.00 0.00 0.00 87 1020.9
20260508210508 48 2 7.0 10.0 0.00 0.00 0.00 87 1021.0
20260508210007 48 17 9.0 10.0 0.00 0.00 0.00 87 1020.9
20260508205508 48 15 11.0 12.0 0.00 0.00 0.00 87 1020.7
20260508205007 48 9 9.0 10.0 0.00 0.00 0.00 87 1021.1
20260508204507 48 15 9.0 10.0 0.00 0.00 0.00 87 1021.0
20260508204007 48 17 7.0 8.0 0.00 0.00 0.00 86 1020.8
20260508203507 48 18 12.0 12.0 0.00 0.00 0.00 87 1020.9
20260508203007 48 36 8.0 9.0 0.00 0.00 0.00 86 1020.9
20260508202507 48 20 6.0 8.0 0.00 0.00 0.00 86 1020.8
20260508202008 48 23 8.0 8.0 0.00 0.00 0.00 86 1020.8
20260508201507 48 16 8.0 9.0 0.00 0.00 0.00 86 1020.7
20260508201007 49 17 9.0 11.0 0.00 0.00 0.00 85 1020.9
20260508200508 49 15 10.0 10.0 0.00 0.00 0.00 86 1020.9
20260508200007 49 17 8.0 8.0 0.00 0.00 0.00 85 1020.9
20260508195508 49 12 7.0 9.0 0.00 0.00 0.00 85 1020.8
20260508195008 49 10 7.0 8.0 0.00 0.00 0.00 85 1020.6
20260508194507 49 11 10.0 12.0 0.00 0.00 0.00 85 1020.5
20260508194008 49 11 5.0 6.0 0.00 0.00 0.00 85 1020.7
20260508193507 49 13 5.0 7.0 0.00 0.00 0.00 84 1020.4
20260508193008 49 6 7.0 8.0 0.00 0.00 0.00 84 1020.6
20260508192507 50 11 10.0 10.0 0.00 0.00 0.00 83 1020.3
20260508192007 50 8 12.0 13.0 0.00 0.00 0.00 83 1020.3
20260508191507 50 12 9.0 10.0 0.00 0.00 0.00 83 1020.5
20260508191006 50 10 5.0 12.0 0.00 0.00 0.00 82 1020.3
20260508190507 50 9 7.0 9.0 0.00 0.00 0.00 82 1020.4
20260508190008 51 1 10.0 10.0 0.00 0.00 0.00 81 1020.2
20260508185507 51 7 8.0 10.0 0.00 0.00 0.00 81 1020.2
20260508185007 51 355 11.0 13.0 0.00 0.00 0.00 80 1020.1
20260508184509 51 14 10.0 10.0 0.00 0.00 0.00 79 1020.0
20260508184009 52 12 6.0 11.0 0.00 0.00 0.00 79 1020.2
20260508183507 52 9 8.0 11.0 0.00 0.00 0.00 78 1019.9
20260508183009 52 9 7.0 12.0 0.00 0.00 0.00 78 1020.0
20260508182506 52 4 9.0 12.0 0.00 0.00 0.00 78 1019.7
20260508182007 52 12 8.0 10.0 0.00 0.00 0.00 77 1020.0
20260508181507 52 11 11.0 13.0 0.00 0.00 0.00 76 1020.0
20260508181008 53 32 7.0 11.0 0.00 0.00 0.00 75 1019.6
20260508180507 53 11 8.0 9.0 0.00 0.00 0.00 74 1019.6
20260508175507 54 38 5.0 8.0 0.00 0.00 0.00 74 1019.4
20260508175007 54 5 4.0 8.0 0.00 0.00 0.00 74 1019.4
20260508174508 54 45 7.0 11.0 0.00 0.00 0.00 73 1019.6
20260508174007 54 52 12.0 14.0 0.00 0.00 0.00 73 1019.6
20260508173507 54 10 6.0 8.0 0.00 0.00 0.00 73 1019.6
20260508173008 55 0 6.0 7.0 0.00 0.00 0.00 72 1019.6
20260508172508 55 10 4.0 5.0 0.00 0.00 0.00 72 1019.5
20260508172007 55 357 6.0 7.0 0.00 0.00 0.00 70 1019.4
20260508171509 55 347 7.0 9.0 0.00 0.00 0.00 70 1019.3
20260508171006 55 0 10.0 12.0 0.00 0.00 0.00 69 1019.4
20260508170507 55 8 7.0 9.0 0.00 0.00 0.00 69 1019.0
20260508170008 55 4 12.0 13.0 0.00 0.00 0.00 69 1019.1
20260508165507 55 18 6.0 13.0 0.00 0.00 0.00 69 1019.4
20260508165008 55 359 9.0 11.0 0.00 0.00 0.00 69 1019.2
20260508164510 0 0 0.0 0.0 0.00 0.00 0.00 100
20260508164008 55 349 11.0 11.0 0.00 0.00 0.00 69 1019.4
20260508163508 55 0 11.0 13.0 0.00 0.00 0.00 68 1019.5
20260508163008 55 355 13.0 17.0 0.00 0.00 0.00 69 1019.6
20260508162507 55 355 17.0 19.0 0.00 0.00 0.00 69 1019.6
20260508162007 56 180 13.0 15.0 0.00 0.00 0.00 68 1019.8
20260508161508 56 151 10.0 12.0 0.00 0.00 0.00 67 1019.5
20260508161008 56 1 10.0 13.0 0.00 0.00 0.00 67 1019.3
20260508160508 56 23 4.0 5.0 0.00 0.00 0.00 68 1019.4
20260508160008 57 92 6.0 7.0 0.00 0.00 0.00 69 1019.5
20260508155507 30 0 0.0 0.0 0.00 0.00 0.00 100 1019.4
20260508155007 57 43 9.0 11.0 0.00 0.00 0.00 66 1019.6
20260508154507 57 43 9.0 11.0 0.00 0.00 0.00 66 1019.4
20260508154007 56 40 7.0 8.0 0.00 0.00 0.00 68 1019.5
20260508153508 56 36 14.0 14.0 0.00 0.00 0.00 67 1019.7
20260508153008 55 4 8.0 9.0 0.00 0.00 0.00 69 1019.7
20260508152507 55 28 9.0 10.0 0.00 0.00 0.00 70 1019.5
20260508152007 55 77 7.0 9.0 0.00 0.00 0.00 70 1019.7
20260508151507 55 65 12.0 14.0 0.00 0.00 0.00 70 1019.8
20260508151007 56 30 10.0 14.0 0.00 0.00 0.00 70 1019.5
20260508150508 55 52 7.0 9.0 0.00 0.00 0.00 69 1019.7
20260508150007 56 53 4.0 6.0 0.00 0.00 0.00 70 1019.9
20260508145508 55 54 6.0 7.0 0.00 0.00 0.00 71 1019.6
20260508145009 55 6 10.0 13.0 0.00 0.00 0.00 70 1019.7
20260508144507 56 11 12.0 13.0 0.00 0.00 0.00 69 1019.8
20260508144008 55 1 12.0 12.0 0.00 0.00 0.00 70 1020.0
20260508143507 54 16 12.0 13.0 0.00 0.00 0.00 71 1019.9
20260508143007 55 325 10.0 11.0 0.00 0.00 0.00 69 1019.9
20260508142508 56 94 11.0 11.0 0.00 0.00 0.00 71 1019.9
20260508142007 55 94 11.0 11.0 0.00 0.00 0.00 71 1020.0
20260508141508 55 94 11.0 11.0 0.00 0.00 0.00 72 1020.0
20260508140508 55 94 11.0 11.0 0.00 0.00 0.00 71 1019.8
20260508140008 55 94 11.0 11.0 0.00 0.00 0.00 72 1020.0
20260508135507 54 94 11.0 11.0 0.00 0.00 0.00 70 1019.8
20260508135007 54 94 11.0 11.0 0.00 0.00 0.00 71 1019.9
20260508134508 54 94 11.0 11.0 0.00 0.00 0.00 71 1020.0
20260508134007 54 94 11.0 11.0 0.00 0.00 0.00 71 1019.9
20260508133507 55 94 11.0 11.0 0.00 0.00 0.00 71 1020.0
20260508133008 54 94 11.0 11.0 0.00 0.00 0.00 72 1020.1
20260508132508 55 94 11.0 11.0 0.00 0.00 0.00 72 1019.9
20260508132007 55 94 11.0 11.0 0.00 0.00 0.00 70 1020.0
20260508131508 54 94 11.0 11.0 0.00 0.00 0.00 71 1020.1
20260508131008 54 94 11.0 11.0 0.00 0.00 0.00 74 1020.1
20260508130507 53 94 11.0 11.0 0.00 0.00 0.00 72 1020.2
20260508130007 54 94 11.0 11.0 0.00 0.00 0.00 72 1020.2
20260508125507 53 94 11.0 11.0 0.00 0.00 0.00 73 1020.3
20260508125008 53 94 11.0 11.0 0.00 0.00 0.00 74 1020.3
20260508124508 53 94 11.0 11.0 0.00 0.00 0.00 74 1020.2
20260508124007 53 94 11.0 11.0 0.00 0.00 0.00 73 1019.9
20260508123508 54 94 11.0 11.0 0.00 0.00 0.00 73 1020.1
20260508123008 54 94 11.0 11.0 0.00 0.00 0.00 73 1020.0
20260508122507 55 94 11.0 11.0 0.00 0.00 0.00 72 1020.0
20260508122008 54 94 11.0 11.0 0.00 0.00 0.00 73 1019.9
20260508121006 55 94 11.0 11.0 0.00 0.00 0.00 71 1019.9
20260508120508 54 94 11.0 11.0 0.00 0.00 0.00 72 1019.8
20260508120008 54 94 11.0 11.0 0.00 0.00 0.00 72 1020.0
20260508115508 53 94 11.0 11.0 0.00 0.00 0.00 73 1020.1
20260508115007 54 94 11.0 11.0 0.00 0.00 0.00 74 1020.1
20260508114508 53 94 11.0 11.0 0.00 0.00 0.00 72 1020.0
20260508114007 54 94 11.0 11.0 0.00 0.00 0.00 73 1020.0
20260508113508 54 94 11.0 11.0 0.00 0.00 0.00 72 1020.0
20260508113008 53 94 11.0 11.0 0.00 0.00 0.00 73 1019.9
20260508112508 53 94 11.0 11.0 0.00 0.00 0.00 73 1020.0
20260508112007 52 94 11.0 11.0 0.00 0.00 0.00 75 1020.1
20260508111508 52 94 11.0 11.0 0.00 0.00 0.00 76 1020.2
20260508111007 52 94 11.0 11.0 0.00 0.00 0.00 75 1020.0
20260508110508 52 94 11.0 11.0 0.00 0.00 0.00 77 1019.9
20260508110007 52 94 11.0 11.0 0.00 0.00 0.00 77 1020.1
20260508105507 52 94 11.0 11.0 0.00 0.00 0.00 78 1020.2
20260508105007 52 94 11.0 11.0 0.00 0.00 0.00 77 1020.1
20260508104508 51 94 11.0 11.0 0.00 0.00 0.00 80 1020.2
20260508104008 51 94 11.0 11.0 0.00 0.00 0.00 79 1020.1
20260508103507 52 94 11.0 11.0 0.00 0.00 0.00 80 1020.1
20260508103007 51 94 11.0 11.0 0.00 0.00 0.00 79 1020.1
20260508102507 51 94 11.0 11.0 0.00 0.00 0.00 79 1020.1
20260508102007 51 94 11.0 11.0 0.00 0.00 0.00 80 1020.1
20260508101508 51 94 11.0 11.0 0.00 0.00 0.00 80 1020.2
20260508101006 51 94 11.0 11.0 0.00 0.00 0.00 80 1020.1
20260508100507 51 94 11.0 11.0 0.00 0.00 0.00 82 1020.0
20260508100008 51 94 11.0 11.0 0.00 0.00 0.00 83 1020.2
20260508095507 50 94 11.0 11.0 0.00 0.00 0.00 83 1020.2